TimeEST,TemperatureF,Dew PointF,Humidity,Sea Level PressureIn,VisibilityMPH,Wind Direction,Wind SpeedMPH,Gust SpeedMPH,PrecipitationIn,Events,Conditions,WindDirDegrees,DateUTC
12:15 AM,39.2,39.2,100,29.66,2.0,WSW,8.1,-,N/A,,Overcast,240,2012-12-10 05:15:00
12:25 AM,39.2,39.2,100,29.66,4.0,West,8.1,-,N/A,,Overcast,260,2012-12-10 05:25:00
12:41 AM,41.0,39.2,93,29.65,6.0,WSW,8.1,-,N/A,,Overcast,250,2012-12-10 05:41:00
12:53 AM,39.9,39.9,100,29.66,6.0,WSW,6.9,-,N/A,,Overcast,250,2012-12-10 05:53:00
1:05 AM,39.2,39.2,100,29.65,7.0,WSW,9.2,-,N/A,,Overcast,240,2012-12-10 06:05:00
1:53 AM,39.9,37.9,93,29.67,10.0,West,13.8,21.9,N/A,,Overcast,270,2012-12-10 06:53:00
2:53 AM,39.9,37.0,89,29.67,10.0,West,16.1,-,N/A,,Overcast,260,2012-12-10 07:53:00
3:48 AM,39.2,35.6,87,29.64,10.0,West,13.8,-,N/A,,Overcast,260,2012-12-10 08:48:00
3:53 AM,39.9,36.0,86,29.66,10.0,WSW,15.0,19.6,N/A,,Overcast,250,2012-12-10 08:53:00
4:53 AM,39.0,34.0,82,29.67,10.0,West,18.4,24.2,N/A,,Overcast,260,2012-12-10 09:53:00
5:14 AM,39.2,33.8,81,29.64,10.0,West,12.7,18.4,N/A,,Overcast,270,2012-12-10 10:14:00
5:53 AM,37.9,34.0,86,29.67,10.0,West,15.0,24.2,N/A,,Overcast,270,2012-12-10 10:53:00
6:06 AM,37.4,33.8,87,29.64,10.0,West,15.0,24.2,N/A,,Overcast,270,2012-12-10 11:06:00
6:53 AM,37.9,34.0,86,29.67,10.0,West,11.5,-,N/A,,Overcast,260,2012-12-10 11:53:00
7:02 AM,37.4,33.8,87,29.65,10.0,West,12.7,-,N/A,,Overcast,270,2012-12-10 12:02:00
7:10 AM,37.4,33.8,87,29.65,10.0,West,9.2,-,N/A,,Overcast,280,2012-12-10 12:10:00
7:51 AM,37.4,33.8,87,29.67,10.0,West,15.0,-,0.00,Rain,Light Rain,260,2012-12-10 12:51:00
7:53 AM,37.9,33.1,83,29.70,10.0,West,15.0,-,0.00,Rain,Light Rain,270,2012-12-10 12:53:00
8:33 AM,37.4,33.8,87,29.68,10.0,WNW,12.7,-,0.00,,Overcast,290,2012-12-10 13:33:00
8:53 AM,36.0,34.0,93,29.70,8.0,WNW,9.2,17.3,0.00,Rain,Light Rain,290,2012-12-10 13:53:00
9:02 AM,35.6,33.8,93,29.69,6.0,WSW,9.2,-,0.00,Rain,Light Rain,250,2012-12-10 14:02:00
9:53 AM,36.0,34.0,93,29.71,7.0,WSW,10.4,-,0.00,,Overcast,250,2012-12-10 14:53:00
10:09 AM,35.6,33.8,93,29.69,7.0,WSW,10.4,-,N/A,,Overcast,250,2012-12-10 15:09:00
10:53 AM,36.0,34.0,93,29.73,4.0,West,10.4,-,0.01,Rain,Light Rain,260,2012-12-10 15:53:00
11:12 AM,33.8,33.8,100,29.72,1.0,NNW,6.9,-,0.00,Rain,Light Rain,340,2012-12-10 16:12:00
11:26 AM,33.8,33.8,100,29.72,2.0,North,5.8,-,0.01,Snow,Light Snow,350,2012-12-10 16:26:00
11:36 AM,35.6,33.8,93,29.72,3.0,NNW,8.1,-,0.01,Snow,Light Snow,340,2012-12-10 16:36:00
11:53 AM,35.1,33.1,92,29.74,4.0,NNW,3.5,-,0.01,,Overcast,330,2012-12-10 16:53:00
12:16 PM,35.6,32.0,87,29.71,3.0,NW,4.6,-,0.00,Snow,Light Snow,320,2012-12-10 17:16:00
12:53 PM,36.0,33.1,89,29.72,9.0,NW,3.5,-,0.00,,Overcast,320,2012-12-10 17:53:00
1:53 PM,37.0,30.9,79,29.72,10.0,North,9.2,-,N/A,,Overcast,360,2012-12-10 18:53:00
2:53 PM,36.0,28.9,76,29.74,10.0,North,11.5,-,N/A,,Overcast,350,2012-12-10 19:53:00
3:53 PM,35.1,28.0,76,29.75,10.0,North,8.1,-,N/A,,Overcast,10,2012-12-10 20:53:00
4:53 PM,34.0,28.0,79,29.78,8.0,North,3.5,-,0.00,Snow,Light Snow,360,2012-12-10 21:53:00
5:53 PM,34.0,28.0,79,29.81,9.0,North,13.8,19.6,0.00,Snow,Light Snow,350,2012-12-10 22:53:00
6:33 PM,33.8,26.6,75,29.81,9.0,NNW,9.2,-,0.00,Snow,Light Snow,340,2012-12-10 23:33:00
6:53 PM,33.1,25.0,72,29.83,9.0,North,11.5,-,0.00,Snow,Light Snow,360,2012-12-10 23:53:00
7:53 PM,32.0,24.1,73,29.84,10.0,NNW,4.6,-,0.00,,Overcast,340,2012-12-11 00:53:00
8:53 PM,32.0,24.1,73,29.88,10.0,North,4.6,-,N/A,,Overcast,360,2012-12-11 01:53:00
9:53 PM,32.0,23.0,69,29.89,10.0,North,6.9,-,N/A,,Overcast,350,2012-12-11 02:53:00
10:53 PM,28.0,21.9,78,29.90,10.0,NNW,4.6,-,N/A,,Scattered Clouds,330,2012-12-11 03:53:00
11:53 PM,28.9,23.0,78,29.92,10.0,Calm,Calm,-,N/A,,Overcast,0,2012-12-11 04:53:00